• In Romania
  • List of Countries
  • For 7 days
  • Water Temperature
  • Satellite Maps
  • Weather Map
  • Weather Widgets
  • user-avatar
    Login

    Hourly Weather Mendoza

    Today, 20 January, Saturday

    Time Temperature Precipitation Wind Pressure Humidity
    00:00 +27°C° 0.2 mm 2 mps 698 mmHg 43%
    01:00 +27°C° 0 mm 2 mps 698 mmHg 43%
    02:00 +26°C° 0 mm 2 mps 698 mmHg 44%
    03:00 +26°C° 0 mm 2 mps 697 mmHg 44%
    04:00 +25°C° 0 mm 1 mps 697 mmHg 44%
    05:00 +26°C° 0 mm 2 mps 697 mmHg 41%
    06:00 +27°C° 0 mm 2 mps 698 mmHg 39%
    07:00 +28°C° 0 mm 2 mps 698 mmHg 36%
    08:00 +29°C° 0.1 mm 2 mps 698 mmHg 34%
    09:00 +30°C° 0.1 mm 3 mps 698 mmHg 32%
    10:00 +32°C° 0.1 mm 4 mps 698 mmHg 30%
    11:00 +33°C° 0.2 mm 5 mps 697 mmHg 30%
    12:00 +34°C° 0.2 mm 5 mps 697 mmHg 29%
    13:00 +34°C° 0.2 mm 6 mps 697 mmHg 29%
    14:00 +34°C° 0.4 mm 5 mps 696 mmHg 30%
    15:00 +34°C° 0.4 mm 5 mps 696 mmHg 30%
    16:00 +34°C° 0.4 mm 4 mps 696 mmHg 31%
    17:00 +33°C° 0.5 mm 4 mps 696 mmHg 33%
    18:00 +31°C° 0.5 mm 3 mps 696 mmHg 35%
    19:00 +31°C° 0.5 mm 3 mps 696 mmHg 37%
    20:00 +30°C° 0.5 mm 2 mps 696 mmHg 39%
    21:00 +29°C° 0.5 mm 2 mps 697 mmHg 41%
    22:00 +28°C° 0.5 mm 2 mps 697 mmHg 44%
    23:00 +28°C° 0.6 mm 2 mps 697 mmHg 46%

    Tomorrow, 21 January, Sunday

    Time Temperature Precipitation Wind Pressure Humidity
    00:00 +27°C° 0.6 mm 2 mps 696 mmHg 49%
    01:00 +26°C° 0.6 mm 2 mps 696 mmHg 51%
    02:00 +26°C° 0.2 mm 2 mps 696 mmHg 52%
    03:00 +26°C° 0.2 mm 2 mps 696 mmHg 54%
    04:00 +25°C° 0.2 mm 1 mps 695 mmHg 55%
    05:00 +26°C° 0.1 mm 1 mps 696 mmHg 51%
    06:00 +26°C° 0.1 mm 2 mps 696 mmHg 48%
    07:00 +27°C° 0.1 mm 2 mps 696 mmHg 44%
    08:00 +28°C° 0 mm 2 mps 696 mmHg 41%
    09:00 +29°C° 0 mm 3 mps 696 mmHg 39%
    10:00 +32°C° 0 mm 4 mps 696 mmHg 36%
    11:00 +32°C° 0.1 mm 4 mps 695 mmHg 35%
    12:00 +33°C° 0.1 mm 4 mps 695 mmHg 34%
    13:00 +34°C° 0.1 mm 4 mps 695 mmHg 33%
    14:00 +34°C° 0.2 mm 4 mps 694 mmHg 33%
    15:00 +34°C° 0.2 mm 4 mps 694 mmHg 32%
    16:00 +34°C° 0.2 mm 3 mps 694 mmHg 32%
    17:00 +34°C° 0.2 mm 3 mps 694 mmHg 31%
    18:00 +33°C° 0.2 mm 3 mps 694 mmHg 31%
    19:00 +31°C° 0.2 mm 3 mps 694 mmHg 31%
    20:00 +30°C° 0.3 mm 3 mps 695 mmHg 35%
    21:00 +29°C° 0.3 mm 4 mps 695 mmHg 39%
    22:00 +28°C° 0.3 mm 4 mps 695 mmHg 43%
    23:00 +28°C° 0.5 mm 5 mps 695 mmHg 46%

    Day after tomorrow, 22 January, Monday

    Time Temperature Precipitation Wind Pressure Humidity
    00:00 +27°C° 0.5 mm 5 mps 694 mmHg 48%
    01:00 +26°C° 0.5 mm 5 mps 694 mmHg 50%
    02:00 +26°C° 0 mm 4 mps 694 mmHg 50%
    03:00 +26°C° 0 mm 3 mps 694 mmHg 49%
    04:00 +25°C° 0 mm 2 mps 693 mmHg 49%
    05:00 +26°C° 0 mm 2 mps 694 mmHg 46%
    06:00 +27°C° 0 mm 2 mps 694 mmHg 43%
    07:00 +27°C° 0 mm 2 mps 694 mmHg 39%
    08:00 +28°C° 0 mm 2 mps 694 mmHg 37%
    09:00 +30°C° 0 mm 2 mps 694 mmHg 35%
    10:00 +31°C° 0 mm 2 mps 694 mmHg 32%
    11:00 +32°C° 0 mm 2 mps 694 mmHg 30%
    12:00 +34°C° 0 mm 3 mps 693 mmHg 29%
    13:00 +35°C° 0 mm 3 mps 693 mmHg 27%
    14:00 +35°C° 0 mm 3 mps 693 mmHg 26%
    15:00 +35°C° 0 mm 3 mps 692 mmHg 26%
    16:00 +35°C° 0 mm 2 mps 692 mmHg 25%
    17:00 +35°C° 0.2 mm 2 mps 692 mmHg 27%
    18:00 +34°C° 0.2 mm 2 mps 693 mmHg 29%
    19:00 +32°C° 0.2 mm 2 mps 693 mmHg 31%
    20:00 +31°C° 0.1 mm 2 mps 693 mmHg 32%
    21:00 +31°C° 0.1 mm 2 mps 694 mmHg 33%
    22:00 +30°C° 0.1 mm 2 mps 694 mmHg 35%
    23:00 +29°C° 0.4 mm 3 mps 694 mmHg 36%

    23 January, Tuesday

    Time Temperature Precipitation Wind Pressure Humidity
    00:00 +28°C° 0.4 mm 4 mps 693 mmHg 38%
    01:00 +27°C° 0.4 mm 6 mps 693 mmHg 40%
    02:00 +26°C° 0.2 mm 5 mps 693 mmHg 46%
    03:00 +25°C° 0.2 mm 5 mps 693 mmHg 52%
    04:00 +23°C° 0.2 mm 4 mps 693 mmHg 58%
    05:00 +25°C° 0 mm 3 mps 694 mmHg 53%
    06:00 +26°C° 0 mm 3 mps 694 mmHg 47%
    07:00 +27°C° 0 mm 2 mps 695 mmHg 41%
    08:00 +28°C° 0 mm 2 mps 695 mmHg 40%
    09:00 +29°C° 0 mm 2 mps 695 mmHg 38%
    10:00 +30°C° 0 mm 2 mps 695 mmHg 36%
    11:00 +31°C° 0 mm 3 mps 695 mmHg 34%
    12:00 +33°C° 0 mm 3 mps 694 mmHg 31%
    13:00 +34°C° 0 mm 3 mps 694 mmHg 29%
    14:00 +35°C° 0 mm 3 mps 694 mmHg 28%
    15:00 +35°C° 0 mm 3 mps 694 mmHg 27%
    16:00 +36°C° 0 mm 3 mps 693 mmHg 26%
    17:00 +35°C° 0.1 mm 3 mps 694 mmHg 28%
    18:00 +34°C° 0.1 mm 3 mps 694 mmHg 30%
    19:00 +32°C° 0.1 mm 2 mps 694 mmHg 32%
    20:00 +31°C° 0.1 mm 2 mps 695 mmHg 34%
    21:00 +31°C° 0.1 mm 2 mps 695 mmHg 36%
    22:00 +30°C° 0.1 mm 2 mps 696 mmHg 38%
    23:00 +29°C° 1 mm 3 mps 696 mmHg 41%

    24 January, Wednesday

    Time Temperature Precipitation Wind Pressure Humidity
    00:00 +28°C° 1 mm 4 mps 696 mmHg 43%
    01:00 +27°C° 1 mm 5 mps 696 mmHg 46%
    02:00 +26°C° 1 mm 5 mps 696 mmHg 51%
    03:00 +25°C° 1 mm 5 mps 696 mmHg 55%
    04:00 +23°C° 1 mm 5 mps 696 mmHg 59%
    05:00 +23°C° 0.4 mm 5 mps 697 mmHg 59%
    06:00 +23°C° 0.4 mm 6 mps 697 mmHg 58%
    07:00 +23°C° 0.4 mm 6 mps 698 mmHg 58%
    08:00 +24°C° 0.1 mm 6 mps 698 mmHg 55%
    09:00 +26°C° 0.1 mm 6 mps 699 mmHg 52%
    10:00 +27°C° 0.1 mm 6 mps 699 mmHg 49%
    11:00 +27°C° 0.1 mm 6 mps 699 mmHg 48%
    12:00 +28°C° 0.1 mm 6 mps 698 mmHg 46%
    13:00 +29°C° 0.1 mm 6 mps 698 mmHg 45%
    14:00 +29°C° 0.1 mm 6 mps 698 mmHg 45%
    15:00 +29°C° 0.1 mm 6 mps 698 mmHg 45%
    16:00 +29°C° 0.1 mm 5 mps 697 mmHg 45%
    17:00 +28°C° 0.2 mm 5 mps 698 mmHg 46%
    18:00 +27°C° 0.2 mm 4 mps 698 mmHg 48%
    19:00 +27°C° 0.2 mm 4 mps 699 mmHg 50%
    20:00 +26°C° 0.1 mm 4 mps 699 mmHg 52%
    21:00 +26°C° 0.1 mm 4 mps 699 mmHg 54%
    22:00 +25°C° 0.1 mm 4 mps 699 mmHg 56%
    23:00 +25°C° 0.1 mm 4 mps 699 mmHg 58%

    25 January, Thursday

    Time Temperature Precipitation Wind Pressure Humidity
    00:00 +23°C° 0.1 mm 4 mps 698 mmHg 59%
    01:00 +24°C° 0.1 mm 3 mps 698 mmHg 60%
    02:00 +22°C° 0 mm 3 mps 698 mmHg 60%
    03:00 +22°C° 0 mm 3 mps 697 mmHg 60%
    04:00 +22°C° 0 mm 3 mps 697 mmHg 60%
    05:00 +22°C° 0 mm 3 mps 697 mmHg 56%
    06:00 +24°C° 0 mm 3 mps 697 mmHg 53%
    07:00 +24°C° 0 mm 3 mps 697 mmHg 49%
    08:00 +26°C° 0 mm 3 mps 697 mmHg 46%
    09:00 +27°C° 0 mm 3 mps 697 mmHg 43%
    10:00 +28°C° 0 mm 3 mps 697 mmHg 40%
    11:00 +29°C° 0 mm 3 mps 696 mmHg 40%
    12:00 +30°C° 0 mm 3 mps 696 mmHg 39%
    13:00 +31°C° 0 mm 3 mps 696 mmHg 38%
    14:00 +31°C° 0 mm 3 mps 695 mmHg 38%
    15:00 +31°C° 0 mm 3 mps 695 mmHg 37%
    16:00 +33°C° 0 mm 3 mps 695 mmHg 37%
    17:00 +31°C° 0.1 mm 3 mps 695 mmHg 39%
    18:00 +30°C° 0.1 mm 2 mps 695 mmHg 40%
    19:00 +30°C° 0.1 mm 2 mps 695 mmHg 42%
    20:00 +29°C° 0.2 mm 2 mps 695 mmHg 45%
    21:00 +29°C° 0.2 mm 2 mps 695 mmHg 47%
    22:00 +28°C° 0.2 mm 2 mps 695 mmHg 50%
    23:00 +28°C° 0.1 mm 2 mps 695 mmHg 51%
    Show more